Location: St. Louis
(38.6270°N, 90.1994°W)
Time: 10:03:15
(UTC-06:00)

Vanguard 2 Rocket - Pass Details

Date: 06 December 2021
Orbit: 553 x 3325 km, 32.9° (Epoch: 23 January)

Event Time Altitude Azimuth Distance (km) Brightness Sun altitude
Rises 20:22:03 0° 269° (W) 3,707 10.8 -42.7°
Reaches altitude 10° 20:24:15 10° 264° (W) 3,002 10.1 -43.2°
Enters shadow 20:28:50 42° 238° (WSW) 1,949 8.6 -44.1°
Maximum altitude 20:31:38 55° 189° (S) 1,890 - -44.6°
Drops below altitude 10° 20:44:45 10° 117° (ESE) 5,161 - -47.2°
Sets 20:49:48 0° 114° (ESE) 6,565 - -48.1°
